Stations météo

Publicité
Orange, France (7579): Température de l'air & dewpoint: 28.05.2020 01:00:00 - 03.06.2020 01:00:00 (CEST)Orange, France (7579): Température de l'air 5cm: 28.05.2020 01:00:00 - 03.06.2020 01:00:00 (CEST)Orange, France (7579): Vitesse du vent & gusts: 28.05.2020 01:00:00 - 03.06.2020 01:00:00 (CEST)Orange, France (7579): Direction du vent: 28.05.2020 01:00:00 - 03.06.2020 01:00:00 (CEST)Orange, France (7579): reduced air pressure: 28.05.2020 01:00:00 - 03.06.2020 01:00:00 (CEST)Orange, France (7579): visibility: 28.05.2020 01:00:00 - 03.06.2020 01:00:00 (CEST)Orange, France (7579): Quantités de précipitations: 28.05.2020 01:00:00 - 03.06.2020 01:00:00 (CEST)
Date & Time tt [°C] td [°C] tt 5cm [°C] ff [km/h] ff [knt] fx [km/h] fx [knt] dd ppp [hPa] vv [km] rr [mm]
03.06.2020 01:00:00 18,4 16,2 16,8 8 4 16 9 SSE 1013,2 31 0,0
03.06.2020 00:00:00 18,7 15,8 17,6 9 5 19 11 SSE 1013,4 41 0,0
02.06.2020 23:00:00 19,2 15,3 18,1 13 7 19 11 SE 1013,5 46 0,0
02.06.2020 22:00:00 21,0 14,9 19,8 9 5 23 12 SSE 1013,1 59 0,0
02.06.2020 21:00:00 23,0 14,8 22,2 12 7 27 15 SSW 1012,3 60 0,0
02.06.2020 20:00:00 25,2 14,9 26,2 14 8 29 16 SSW 1012,1 54 0,0
02.06.2020 19:00:00 27,1 12,7 29,5 17 9 26 14 SSW 1011,9 44 0,0
02.06.2020 18:00:00 28,4 13,1 33,3 10 5 24 13 WSW 1012,4 45 0,0
02.06.2020 17:00:00 28,1 12,0 35,4 9 5 27 15 SSW 1013,2 20 0,0
02.06.2020 16:00:00 27,4 11,4 34,7 9 5 20 11 S 1013,7 51 0,0
02.06.2020 15:00:00 27,4 12,2 37,2 12 7 28 15 WSW 1014,4 45 0,0
02.06.2020 14:00:00 26,7 11,2 32,7 9 5 21 11 SSW 1015,2 20 0,0
02.06.2020 13:00:00 26,5 11,8 36,1 11 6 26 14 W 1015,8 59 0,0
02.06.2020 12:00:00 25,5 12,7 32,0 5 3 20 11 N 1016,3 60 0,0
02.06.2020 11:00:00 23,7 13,8 28,0 7 4 16 9 WNW 1016,9 42 0,0
02.06.2020 10:00:00 23,4 13,6 23,5 3 2 12 7 WNW 1017,1 51 0,0
02.06.2020 09:00:00 19,6 13,3 18,2 3 2 9 5 ENE 1016,9 59 0,0
02.06.2020 08:00:00 16,9 13,4 15,4 5 3 14 7 NW 1017,2 46 0,0
02.06.2020 07:00:00 15,8 12,9 14,8 6 3 10 5 ENE 1016,9 51 0,0
02.06.2020 06:00:00 15,5 13,2 14,4 6 3 11 6 WSW 1017,1 44 0,0
02.06.2020 05:00:00 15,4 12,7 14,2 4 2 8 4 E 1016,6 57 0,0
02.06.2020 04:00:00 15,4 12,5 13,5 4 2 11 6 NNW 1016,8 23 0,0
02.06.2020 03:00:00 15,4 12,2 13,5 0 0 10 5 N 1016,9 59 0,0
02.06.2020 02:00:00 15,9 12,3 13,6 0 0 13 7 N 1017,3 60 0,0
02.06.2020 01:00:00 16,2 12,2 13,7 3 1 11 6 SE 1017,9 60 0,0
02.06.2020 00:00:00 16,8 11,7 13,7 0 0 7 4 N 1018,0 60 0,0
01.06.2020 23:00:00 19,0 11,8 16,8 6 3 10 5 S 1017,6 60 0,0
01.06.2020 22:00:00 20,4 12,4 19,1 6 3 16 9 S 1017,5 60 0,0
01.06.2020 21:00:00 21,3 14,0 20,7 11 6 23 12 S 1016,9 60 0,0
01.06.2020 20:00:00 22,7 15,3 23,1 10 5 26 14 S 1016,3 60 0,0
01.06.2020 19:00:00 23,4 13,0 24,0 19 10 31 17 SSW 1016,1 46 0,0
01.06.2020 18:00:00 25,5 12,7 28,7 19 11 37 20 SW 1015,9 13 0,0
01.06.2020 17:00:00 26,3 13,1 30,0 18 10 37 20 SSW 1016,0 43 0,0
01.06.2020 16:00:00 26,4 12,5 31,3 16 8 32 18 SSW 1016,2 57 0,0
01.06.2020 15:00:00 26,2 12,3 32,9 14 8 31 17 SSW 1016,4 20 0,0
01.06.2020 14:00:00 25,7 12,2 33,4 15 8 29 16 SW 1016,9 55 0,0
01.06.2020 13:00:00 24,8 13,7 32,1 6 3 20 11 SSE 1017,0 55 0,0
01.06.2020 12:00:00 23,5 13,4 29,5 7 4 17 9 S 1017,6 54 0,0
01.06.2020 11:00:00 21,6 13,8 27,3 6 3 14 8 SE 1017,8 20 0,0
01.06.2020 10:00:00 21,0 13,7 21,4 0 0 6 3 N 1017,9 45 0,0
01.06.2020 09:00:00 18,0 12,4 19,3 4 2 7 4 SE 1017,4 51 0,0
01.06.2020 08:00:00 17,2 12,1 15,2 0 0 5 3 N 1016,7 50 0,0
01.06.2020 07:00:00 15,0 11,9 10,6 4 2 9 5 N 1016,3 40 0,0
01.06.2020 06:00:00 12,8 10,7 10,1 5 3 9 5 NW 1016,0 50 0,0
01.06.2020 05:00:00 13,0 10,9 9,9 6 3 8 5 N 1016,1 53 0,0
01.06.2020 04:00:00 13,3 11,0 10,4 4 2 9 5 NNE 1016,5 48 0,0
01.06.2020 03:00:00 13,8 11,5 10,8 4 2 6 4 ENE 1016,6 51 0,0
01.06.2020 02:00:00 14,0 11,2 11,2 2 1 5 3 E 1016,6 55 0,0
01.06.2020 01:00:00 14,7 11,7 11,8 5 3 10 5 ESE 1016,8 55 0,0
01.06.2020 00:00:00 15,4 11,6 13,0 8 5 10 6 ESE 1016,5 57 0,0
31.05.2020 23:00:00 16,3 10,8 14,0 6 3 13 7 SSE 1016,4 60 0,0
31.05.2020 22:00:00 19,4 9,3 17,7 8 4 18 10 S 1015,7 60 0,0
31.05.2020 21:00:00 20,7 9,6 19,5 12 6 23 13 SSW 1014,9 60 0,0
31.05.2020 20:00:00 23,2 12,2 24,2 13 7 23 12 SSW 1014,3 54 0,0
31.05.2020 19:00:00 24,2 12,8 24,8 16 9 27 15 SSW 1013,6 20 0,0
31.05.2020 18:00:00 25,2 12,8 29,1 16 9 28 15 SW 1013,8 47 0,0
31.05.2020 17:00:00 25,7 12,9 32,7 17 9 32 17 SSW 1014,0 48 0,0
31.05.2020 16:00:00 26,0 12,8 33,4 13 7 28 15 SW 1014,2 20 0,0
31.05.2020 15:00:00 25,6 12,4 33,6 9 5 25 13 S 1014,6 20 0,0
31.05.2020 14:00:00 25,0 11,9 33,2 8 5 21 12 S 1015,1 60 0,0
31.05.2020 13:00:00 24,1 11,8 31,9 8 4 18 10 SW 1015,4 20 0,0
31.05.2020 12:00:00 22,7 12,0 29,2 3 2 13 7 SE 1015,6 30 0,0
31.05.2020 11:00:00 21,6 13,8 25,5 3 1 10 5 S 1015,9 20 0,0
31.05.2020 10:00:00 19,6 13,5 20,8 6 3 11 6 SSW 1016,3 20 0,0
31.05.2020 09:00:00 17,4 11,9 15,6 4 2 9 5 WSW 1016,5 20 0,0
31.05.2020 08:00:00 14,5 11,6 12,0 3 1 6 3 W 1016,3 36 0,0
31.05.2020 07:00:00 12,9 10,4 9,4 3 2 7 4 WNW 1016,1 40 0,0
31.05.2020 06:00:00 11,5 8,5 9,2 4 2 8 5 ENE 1015,8 57 0,0
31.05.2020 05:00:00 13,2 9,6 11,3 6 3 8 4 NE 1015,9 53 0,0
31.05.2020 04:00:00 13,2 10,2 9,7 3 1 7 4 N 1016,2 49 0,0
31.05.2020 03:00:00 13,0 9,8 9,6 0 0 6 3 N 1016,3 54 0,0
31.05.2020 02:00:00 13,1 9,5 10,3 6 3 9 5 ESE 1016,6 58 0,0
31.05.2020 01:00:00 14,4 9,8 11,3 6 4 14 7 ESE 1016,8 52 0,0
31.05.2020 00:00:00 14,6 10,4 12,6 10 5 11 6 SE 1016,4 51 0,0
30.05.2020 23:00:00 16,9 9,8 14,6 6 4 15 8 SSE 1016,0 53 0,0
30.05.2020 22:00:00 18,4 9,5 15,8 8 4 16 9 S 1015,4 60 0,0
30.05.2020 21:00:00 20,9 8,8 19,5 9 5 23 12 SSW 1014,6 60 0,0
30.05.2020 20:00:00 22,7 8,4 23,5 12 6 27 15 SSW 1014,4 47 0,0
30.05.2020 19:00:00 23,8 8,6 26,1 16 8 29 16 SSW 1014,2 50 0,0
30.05.2020 18:00:00 24,4 8,8 28,8 16 9 35 19 SSW 1014,4 44 0,0
30.05.2020 17:00:00 24,6 8,9 30,2 22 12 36 19 SSW 1014,7 45 0,0
30.05.2020 16:00:00 25,6 10,6 32,5 19 10 31 17 SW 1015,1 56 0,0
30.05.2020 15:00:00 25,0 9,7 32,1 11 6 26 14 SSW 1015,6 60 0,0
30.05.2020 14:00:00 24,2 9,0 32,0 12 6 29 16 SSW 1016,2 40 0,0
30.05.2020 13:00:00 23,5 10,9 31,4 9 5 20 11 WSW 1016,7 19 0,0
30.05.2020 12:00:00 23,0 9,4 28,4 7 4 19 10 WSW 1017,1 60 0,0
30.05.2020 11:00:00 22,3 9,5 25,1 5 3 12 6 WNW 1017,4 44 0,0
30.05.2020 10:00:00 19,9 11,9 20,9 0 0 7 4 N 1017,9 51 0,0
30.05.2020 09:00:00 17,8 12,0 17,5 0 0 5 3 N 1018,2 33 0,0
30.05.2020 08:00:00 15,4 12,2 12,1 2 1 6 3 SE 1018,5 14 0,0
30.05.2020 07:00:00 11,8 10,4 8,2 5 3 7 4 ENE 1018,7 55 0,0
30.05.2020 06:00:00 10,3 9,1 8,2 0 0 3 2 N 1018,5 28 0,0
30.05.2020 05:00:00 11,6 10,2 9,3 2 1 4 2 SW 1018,6 32 0,0
30.05.2020 04:00:00 12,6 10,8 10,5 0 0 7 4 N 1018,9 40 0,0
30.05.2020 03:00:00 13,4 11,1 11,5 5 3 7 4 NNE 1019,1 41 0,0
30.05.2020 02:00:00 14,8 12,3 12,4 2 1 6 3 NNW 1019,3 39 0,0
30.05.2020 01:00:00 15,5 12,8 14,0 0 0 4 2 N 1019,4 42 0,0
30.05.2020 00:00:00 16,1 13,0 13,8 0 0 6 4 N 1019,5 50 0,0
29.05.2020 23:00:00 16,7 11,8 14,2 5 3 11 6 SSW 1019,3 53 0,0
29.05.2020 22:00:00 18,3 13,8 17,2 3 2 10 5 S 1018,9 47 0,0
29.05.2020 21:00:00 18,7 12,9 17,7 7 4 23 13 S 1018,2 51 0,0
29.05.2020 20:00:00 20,1 13,3 20,6 16 9 31 17 SSE 1017,5 51 0,0
29.05.2020 19:00:00 20,7 15,0 18,4 12 7 37 20 SSE 1017,4 38 0,2
29.05.2020 18:00:00 19,6 15,0 15,9 19 10 54 29 ESE 1017,0 21 4,7
29.05.2020 17:00:00 23,8 12,4 25,3 22 12 49 27 SSE 1015,9 24 0,0
29.05.2020 16:00:00 26,5 10,6 29,8 11 6 25 13 S 1015,0 52 0,0
29.05.2020 15:00:00 27,5 10,7 36,1 9 5 24 13 SSW 1015,5 60 0,0
29.05.2020 14:00:00 26,4 12,1 35,0 8 4 23 12 SE 1015,8 60 0,0
29.05.2020 13:00:00 26,8 10,5 34,6 9 5 33 18 NW 1016,0 60 0,0
29.05.2020 12:00:00 25,6 10,2 27,4 24 13 43 23 N 1016,1 23 0,0
29.05.2020 11:00:00 22,9 9,7 26,5 31 17 51 28 N 1016,4 24 0,0
29.05.2020 10:00:00 21,7 10,5 23,3 24 13 44 24 N 1016,7 20 0,0
29.05.2020 09:00:00 20,5 10,9 19,6 22 12 45 24 N 1017,2 23 0,0
29.05.2020 08:00:00 18,8 10,4 14,8 29 15 44 24 N 1017,2 20 0,0
29.05.2020 07:00:00 16,9 10,3 10,6 14 7 22 12 N 1017,5 37 0,0
29.05.2020 06:00:00 14,7 9,7 11,5 7 4 18 10 N 1017,9 45 0,0
29.05.2020 05:00:00 15,8 10,5 9,8 12 6 19 11 NNW 1018,0 48 0,0
29.05.2020 04:00:00 13,9 11,1 11,0 3 2 11 6 NNE 1018,4 41 0,0
29.05.2020 03:00:00 15,5 12,1 12,5 4 2 11 6 SSE 1018,7 50 0,0
29.05.2020 02:00:00 16,4 12,0 13,5 2 1 16 8 ESE 1019,1 57 0,0
29.05.2020 01:00:00 20,6 9,5 15,9 6 4 21 11 N 1019,4 60 0,0
29.05.2020 00:00:00 20,9 9,8 17,4 10 5 16 8 W 1019,4 60 0,0
28.05.2020 23:00:00 22,5 9,6 20,0 15 8 33 18 NNW 1019,3 60 0,0
28.05.2020 22:00:00 23,2 8,8 20,8 18 10 37 20 NNW 1019,1 60 0,0
28.05.2020 21:00:00 24,6 8,1 22,4 19 10 34 18 N 1018,9 57 0,0
28.05.2020 20:00:00 26,2 7,2 26,8 18 10 41 22 N 1019,0 51 0,0
28.05.2020 19:00:00 27,7 7,5 30,4 24 13 43 23 N 1019,2 29 0,0
28.05.2020 18:00:00 28,7 6,7 32,8 23 13 39 21 N 1019,7 20 0,0
28.05.2020 17:00:00 29,0 7,0 35,6 25 13 43 23 N 1020,2 25 0,0
28.05.2020 16:00:00 29,5 8,0 37,3 25 14 40 22 N 1020,9 35 0,0
28.05.2020 15:00:00 29,3 7,8 40,5 21 12 42 23 NNW 1021,6 60 0,0
28.05.2020 14:00:00 28,4 9,1 38,7 21 12 35 19 N 1022,4 42 0,0
28.05.2020 13:00:00 27,3 9,2 36,1 15 8 32 17 N 1023,2 40 0,0
28.05.2020 12:00:00 25,9 10,1 32,6 21 11 32 17 NNW 1024,2 43 0,0
28.05.2020 11:00:00 24,0 11,0 27,7 14 8 26 14 N 1025,1 41 0,0
28.05.2020 10:00:00 21,9 12,4 21,0 6 4 13 7 NNW 1025,8 51 0,0
28.05.2020 09:00:00 18,9 13,1 17,1 7 4 13 7 WNW 1026,5 20 0,0
28.05.2020 08:00:00 16,3 12,1 11,2 2 1 5 3 NNW 1026,9 50 0,0
28.05.2020 07:00:00 12,3 10,7 8,3 0 0 7 4 N 1027,2 41 0,0
28.05.2020 06:00:00 10,6 9,0 8,3 3 2 4 2 N 1027,3 48 0,0
28.05.2020 05:00:00 11,0 9,4 8,6 0 0 4 2 N 1027,4 45 0,0
28.05.2020 04:00:00 11,4 8,8 8,9 2 1 4 2 NNE 1027,6 57 0,0
28.05.2020 03:00:00 12,9 9,9 9,6 4 2 6 3 SE 1027,9 57 0,0
28.05.2020 02:00:00 13,2 9,8 10,0 2 1 6 3 SE 1028,1 59 0,0
28.05.2020 01:00:00 14,1 9,9 10,7 4 2 7 4 ESE 1028,3 58 0,0

tt = Température de l'air
td = dewpoint
tt 5cm = Température de l'air 5cm
ff = Vitesse du vent
fx = gusts
dd = Direction du vent
ppp = reduced air pressure
vv = visibility
rr = Quantités de précipitations

stations d'obs. à proximité